Date String (YYYY-MM-DD hh:mm:ss) UTC,Instrument flags,Ambient pressure (hPa),Sample flow (lpm),Bypass flow (lpm),Sample temperature (°C),Ambient temperature (°C),ASC tube jacket temperature (°C),LED temperature (°C),Box temperature (°C),Sample RH (%),Span deviation,Mass concentration (μg/m³),Mass concentration (μg/m³),Mass concentration (μg/m³)
DateTimeUTC,F1_M11,P_M11,Q1_M11,Q2_M11,T1_M11,T2_M11,T3_M11,T4_M11,T5_M11,U1_M11,ZSPAN_M11,X0_M11,X2_M11,X1_M11
2021-12-21 09:00:00,,0822.2,5.00,0.00,22.3,21.5,00.0,31.3,23.9,06.2,0000.0,0010.82,0002.80,0001.73
2021-12-21 09:01:00,,0822.5,4.99,0.00,22.3,21.6,00.0,31.3,24.0,06.1,0000.0,0008.89,0002.37,0001.46
2021-12-21 09:02:00,,0822.4,5.00,0.00,22.4,22.3,00.0,31.4,24.2,08.0,0000.0,0009.60,0002.47,0001.54
2021-12-21 09:03:00,,0822.1,5.02,0.00,22.5,23.1,00.0,31.4,24.5,08.5,0000.0,0009.84,0002.84,0001.79
2021-12-21 09:04:00,,0822.3,5.00,0.00,22.6,23.1,00.0,31.5,24.5,08.5,0000.0,0009.57,0003.10,0001.99
2021-12-21 09:05:00,,0822.1,5.01,0.00,22.5,22.8,00.0,31.5,24.4,08.7,0000.0,0009.05,0003.29,0002.20
2021-12-21 09:06:00,,0821.9,4.99,0.00,22.5,22.5,00.0,31.5,24.2,08.1,0000.0,0009.12,0003.51,0002.51
2021-12-21 09:07:00,,0821.9,5.00,0.00,22.5,22.3,00.0,31.5,24.1,06.3,0000.0,0009.18,0003.57,0002.54
2021-12-21 09:08:00,,0822.2,5.00,0.00,22.4,22.1,00.0,31.5,24.1,07.6,0000.0,0009.43,0003.67,0002.67
2021-12-21 09:09:00,,0822.3,4.99,0.00,22.4,21.9,00.0,31.4,24.0,09.0,0000.0,0010.23,0004.05,0003.09
2021-12-21 09:10:00,,0822.2,5.01,0.00,22.3,21.8,00.0,31.4,23.9,08.4,0000.0,0011.31,0004.34,0003.30
2021-12-21 09:11:00,,0822.2,4.99,0.00,22.3,21.6,00.0,31.4,23.9,08.0,0000.0,0011.55,0004.54,0003.43
2021-12-21 09:12:00,,0822.2,4.99,0.00,22.3,21.5,00.0,31.4,23.8,08.1,0000.0,0012.25,0004.77,0003.57
2021-12-21 09:13:00,,0822.0,5.01,0.00,22.2,21.4,00.0,31.4,23.9,06.8,0000.0,0012.11,0004.72,0003.52
2021-12-21 09:14:00,,0821.9,4.99,0.00,22.2,21.4,00.0,31.3,23.9,06.3,0000.0,0011.61,0004.43,0003.32
2021-12-21 09:15:00,,0821.9,5.01,0.00,22.2,21.4,00.0,31.3,23.9,06.1,0000.0,0010.87,0004.09,0003.07
2021-12-21 09:16:00,,0821.9,4.99,0.00,22.2,21.4,00.0,31.3,23.9,06.0,0000.0,0009.87,0003.70,0002.65
2021-12-21 09:17:00,,0822.0,5.00,0.00,22.2,21.3,00.0,31.3,23.9,05.8,0000.0,0009.72,0003.42,0002.28
2021-12-21 09:18:00,,0822.1,5.01,0.00,22.2,21.3,00.0,31.3,23.9,05.8,0000.0,0010.21,0003.34,0002.21
2021-12-21 09:19:00,,0822.2,5.00,0.00,22.2,21.3,00.0,31.3,23.9,05.8,0000.0,0010.01,0003.23,0002.09
2021-12-21 09:20:00,,0822.4,5.00,0.00,22.2,21.3,00.0,31.3,23.9,05.9,0000.0,0009.52,0002.67,0001.67
2021-12-21 09:21:00,,0822.4,5.00,0.00,22.2,21.4,00.0,31.3,23.9,05.8,0000.0,0008.50,0002.00,0001.23
2021-12-21 09:22:00,,0822.5,4.98,0.00,22.2,21.3,00.0,31.2,23.9,06.3,0000.0,0008.84,0001.58,0000.96
2021-12-21 09:23:00,,0822.6,5.01,0.00,22.1,21.3,00.0,31.2,23.7,09.5,0000.0,0010.27,0001.84,0001.17
2021-12-21 09:24:00,,0822.4,4.99,0.00,22.0,21.1,00.0,31.2,23.6,10.0,0000.0,0012.60,0002.47,0001.63
2021-12-21 09:25:00,,0822.3,5.00,0.00,22.0,21.3,00.0,31.2,23.6,10.2,0000.0,0014.27,0003.19,0002.23
2021-12-21 09:26:00,,0822.4,5.00,0.00,22.1,22.1,00.0,31.2,23.9,09.7,0000.0,0016.66,0003.70,0002.84
2021-12-21 09:27:00,,0822.6,5.01,0.00,22.3,22.9,00.0,31.3,24.2,09.5,0000.0,0017.53,0004.09,0003.22
2021-12-21 09:28:00,,0822.5,4.99,0.00,22.4,22.9,00.0,31.3,24.2,10.1,0000.0,0017.88,0004.61,0003.53
2021-12-21 09:29:00,,0822.4,5.00,0.00,22.3,22.4,00.0,31.3,24.0,10.2,0000.0,0018.59,0005.22,0003.90
2021-12-21 09:30:00,,0822.4,5.01,0.00,22.2,22.1,00.0,31.3,23.8,10.3,0000.0,0019.88,0005.82,0004.28
2021-12-21 09:31:00,,0822.4,5.00,0.00,22.1,21.9,00.0,31.2,23.7,10.3,0000.0,0021.33,0006.34,0004.64
2021-12-21 09:32:00,,0822.3,4.99,0.00,22.1,21.7,00.0,31.2,23.6,09.5,0000.0,0023.64,0006.82,0004.96
2021-12-21 09:33:00,,0822.3,4.99,0.00,22.1,21.5,00.0,31.2,23.6,08.4,0001.2,0023.76,0007.12,0005.14
2021-12-21 09:34:00,,0822.3,5.01,0.00,22.0,21.4,00.0,31.2,23.6,08.4,0000.1,0022.89,0007.18,0005.14
2021-12-21 09:35:00,,0822.2,4.99,0.00,22.0,21.3,00.0,31.2,23.6,08.0,0000.0,0020.65,0006.88,0004.92
2021-12-21 09:36:00,,0822.4,5.01,0.00,22.0,21.3,00.0,31.1,23.6,08.0,0000.0,0019.76,0006.68,0004.76
2021-12-21 09:37:00,,0822.5,5.01,0.00,22.0,21.3,00.0,31.1,23.6,07.9,0000.0,0018.05,0006.40,0004.56
2021-12-21 09:38:00,,0822.6,4.99,0.00,22.0,21.3,00.0,31.1,23.6,07.8,0000.0,0017.42,0006.12,0004.40
2021-12-21 09:39:00,,0822.6,5.00,0.00,21.9,21.2,00.0,31.1,23.5,09.8,0000.0,0017.92,0005.96,0004.33
2021-12-21 09:40:00,,0822.4,5.00,0.00,21.9,21.1,00.0,31.1,23.4,10.2,0000.0,0018.21,0005.89,0004.32
2021-12-21 09:41:00,,0822.5,5.02,0.00,21.8,21.0,00.0,31.1,23.3,10.4,0000.0,0018.99,0005.88,0004.30
2021-12-21 09:42:00,,0822.4,4.99,0.00,21.8,20.9,00.0,31.0,23.3,10.3,0000.0,0020.77,0005.94,0004.28
2021-12-21 09:43:00,,0821.9,5.01,0.00,21.7,20.7,00.0,31.0,23.2,08.5,0000.0,0019.34,0005.90,0004.21
2021-12-21 09:44:00,,0822.3,4.99,0.00,21.7,20.8,00.0,31.0,23.2,07.6,0000.0,0018.94,0005.74,0004.10
2021-12-21 09:45:00,,0822.3,5.00,0.00,21.8,21.7,00.0,31.0,23.5,08.2,0000.0,0018.70,0005.61,0004.04
2021-12-21 09:46:00,,0822.1,5.01,0.00,21.9,22.7,00.0,31.0,23.9,08.0,0000.0,0018.45,0005.59,0004.03
2021-12-21 09:47:00,,0822.1,4.99,0.00,22.1,23.0,00.0,31.0,24.1,06.6,0000.0,0018.08,0005.42,0003.94
2021-12-21 09:48:00,,0822.2,5.00,0.00,22.1,22.7,00.0,31.1,24.0,06.0,0000.0,0017.13,0005.18,0003.78
2021-12-21 09:49:00,,0822.4,5.01,0.00,22.1,22.5,00.0,31.1,24.0,06.0,0000.0,0016.66,0005.03,0003.67
2021-12-21 09:50:00,,0822.5,4.99,0.00,22.1,22.2,00.0,31.1,23.9,08.5,0000.0,0015.91,0004.90,0003.54
2021-12-21 09:51:00,,0822.6,5.00,0.00,22.1,22.0,00.0,31.1,23.8,09.7,0000.0,0015.93,0004.88,0003.51
2021-12-21 09:52:00,,0822.4,5.01,0.00,22.0,21.8,00.0,31.1,23.7,09.9,0000.0,0015.30,0004.80,0003.48
2021-12-21 09:53:00,,0822.3,5.00,0.00,22.0,21.6,00.0,31.1,23.6,09.6,0000.0,0012.57,0004.71,0003.45
2021-12-21 09:54:00,,0822.2,5.01,0.00,21.9,21.4,00.0,31.1,23.5,09.6,0000.0,0012.33,0004.66,0003.44
2021-12-21 09:55:00,,0822.2,5.00,0.00,21.9,21.3,00.0,31.0,23.4,08.6,0000.0,0012.30,0004.81,0003.56
2021-12-21 09:56:00,,0822.3,4.99,0.00,21.9,21.2,00.0,31.0,23.5,07.3,0000.0,0012.36,0004.76,0003.53
2021-12-21 09:57:00,,0822.3,5.01,0.00,21.9,21.2,00.0,31.0,23.5,07.3,0000.0,0011.39,0004.59,0003.46
2021-12-21 09:58:00,,0822.3,5.00,0.00,21.9,21.1,00.0,31.0,23.4,07.2,0000.0,0011.21,0004.57,0003.45
2021-12-21 09:59:00,,0822.3,4.99,0.00,21.8,21.1,00.0,31.0,23.5,07.3,0000.0,0011.48,0004.70,0003.52
